Location: Unspecified
(0.0000°N, 0.0000°E)
Time: 09:34:01
(UTC+00:00)

Vanguard 2 - Pass Details

Date: 15 October 2022
Orbit: 553 x 2933 km, 32.9° (Epoch: 29 November)

Event Time Altitude Azimuth Distance (km) Brightness Sun altitude
Exits shadow 03:31:25 15° 169° (SSE) 1,952 9.8 -33.2°
Maximum altitude 03:32:18 15° 156° (SSE) 1,852 9.8 -33.0°
Drops below altitude 10° 03:34:58 10° 119° (ESE) 2,004 10.4 -32.3°
Sets 03:37:53 0° 94° (E) 2,766 11.5 -31.6°
